Home > Weather > Londrina > Past weeks

Flag for Brazil Weather for the Past 2 Weeks in Londrina, Paraná, Brazil

Now
73 °F

Clear.


Feels Like: 72 °F
Forecast: 74 / 88 °F
Wind: 2 mph from Northwest

Location: Londrina Aeroporto

Current Time: Feb 11, 2016 at 3:54:56 AM

Latest Report: Feb 11, 2016 at 3:00 AM


Visibility: 10 mi

Pressure: 29.98 "Hg (27.93 "Hg at 615m altitude)

Humidity: 89%

Dew point: 70 °F

Location of LondrinaLocation

Historic Weather in Londrina — Graph

°F

Londrina Temperature Yesterday

Maximum temperature yesterday: 90 °F (at 12:00 PM)
Minimum temperature yesterday: 73 °F (at 1:00 AM)
Average temperature yesterday: 78 °F

High & Low Weather Summary for the Past Weeks

 TemperatureHumidityPressure
High95 °F (Feb 2, 3:00 PM)100% (Jan 27, 7:00 AM)30.12 "Hg (Jan 27, 7:00 AM)
Low70 °F (Jan 27, 7:00 AM)32% (Feb 2, 3:00 PM)29.80 "Hg (Jan 27, 5:00 AM)
Average79 °F77%30.00 "Hg
* Reported Jan 27 3:00 AM — Feb 11 3:00 AM, Londrina, Weather by CustomWeather, © 2016

Note: Actual official high and low records may vary slightly from our data, if they occured in-between our weather recording intervals... More about our weather records

Advertising

Londrina Weather History for the Previous 24 Hours

 ConditionsComfort  
Time TempWeatherWind HumidityBarometerVisibility
3:00 AM
Thu, Feb 11
73 °FClear.2 mph89%29.98 "Hg10 mi
2:00 AM73 °FClear.3 mph94%30.01 "Hg10 mi
1:00 AM75 °FOvercast.9 mph89%30.07 "HgN/A
12:00 AM73 °FClear.No wind94%30.07 "Hg10 mi
11:00 PM
Wed, Feb 10
73 °FClear.No wind94%30.07 "Hg10 mi
10:00 PM75 °FPassing clouds.No wind89%30.01 "HgN/A
9:00 PM75 °FPassing clouds.3 mph89%29.98 "HgN/A
8:00 PM75 °FBroken clouds.3 mph94%29.98 "HgN/A
7:00 PM77 °FBroken clouds.6 mph89%29.98 "HgN/A
6:00 PM75 °FScattered clouds.6 mph94%29.98 "HgN/A
5:00 PM75 °FScattered clouds.6 mph94%29.98 "HgN/A
4:00 PM79 °FThunderstorms. Scattered clouds.3 mph89%29.98 "HgN/A
3:00 PM77 °FStrong thunderstorms. Partly sunny.15 mph89%N/A1 mi
2:00 PM86 °FRain showers. Partly sunny.6 mph62%30.01 "Hg5 mi
1:00 PM90 °FPartly sunny.8 mph55%30.04 "HgN/A
12:00 PM90 °FScattered clouds.7 mph55%30.04 "HgN/A
11:00 AM86 °FPassing clouds.3 mph66%30.04 "HgN/A
10:00 AM84 °FSunny.6 mph70%30.04 "Hg10 mi
9:00 AM79 °FSunny.2 mph79%30.04 "Hg10 mi
8:00 AM73 °FSunny.3 mph89%30.01 "Hg10 mi
7:00 AM73 °FClear.2 mph89%29.98 "Hg10 mi
6:00 AM73 °FClear.2 mph89%29.98 "Hg10 mi
5:00 AM73 °FClear.2 mph89%30.01 "Hg10 mi
4:00 AM75 °FClear.No wind83%30.01 "Hg10 mi
3:00 AM73 °FClear.5 mph89%30.04 "Hg10 mi
Weather by CustomWeather, © 2016

See weather overviewHow to use our weather pages